Regional Weather Roundup
Issued by NWS

Home | Current Version | Previous Version | Graphics & Text | Print | Product List | Glossary On
Versions: 1 2 3 4 5 6 7 8 9 10 11 12 13 14 15 16 17 18 19 20 21 22 23 24 25 26 27 28 29 30 31 32 33 34 35 36 37 38 39 40 41 42 43 44 45 46 47 48 49 50
000
ASUS43 KTOP 181708
RWRKS

WEATHER ROUNDUP FOR KANSAS
NATIONAL WEATHER SERVICE GOODLAND KS
1100 AM CST THU DEC 18 2014

NOTE:  "FAIR" INDICATES FEW OR NO CLOUDS BELOW 12,000 FEET WITH NO
SIGNIFICANT WEATHER AND/OR OBSTRUCTIONS TO VISIBILITY.

KSZ001>006-013>018-027>032-041>047-181800-
NORTHWEST KANSAS

CITY           SKY/WX    TMP DP  RH WIND       PRES   REMARKS
GOODLAND       CLOUDY    24  23  96 S6        30.11R
HAYS           CLOUDY    28  19  69 CALM      30.20R
HILL CITY      CLOUDY    28  25  88 W5        30.19R
RUSSELL        CLOUDY    28  26  92 CALM      30.19R FOG
$$

KSZ061>065-074>080-084>089-181800-
SOUTHWEST KANSAS

CITY           SKY/WX    TMP DP  RH WIND       PRES   REMARKS
DODGE CITY     CLOUDY    30  27  88 N7        30.17R FOG
ELKHART          N/A     33  28  81 N3          N/A
GARDEN CITY    CLOUDY    28  28 100 N6        30.15S
GREAT BEND     CLOUDY    28  23  80 N3        30.21
LIBERAL        CLOUDY    34  28  80 N8        30.16R
PRATT          CLOUDY    30  30 100 CALM      30.19S FOG
$$

KSZ066>073-081>083-090>101-181800-
SOUTHEAST KANSAS

CITY           SKY/WX    TMP DP  RH WIND       PRES   REMARKS
CHANUTE        CLOUDY    33  33 100 CALM      30.22R FOG
COFFEYVILLE    FOG       36  36 100 CALM      30.22R VSB 1/4
HUTCHINSON     CLOUDY    33  28  81 CALM      30.20S
MEDICINE LODGE   N/A     33  33 100 CALM      30.19R
NEWTON         CLOUDY    30  25  80 N3        30.21S
PARSONS        FOG       36  36 100 CALM      30.22S VSB 3/4
WICHITA INTL   CLOUDY    33  30  88 N3        30.20S FOG
WICHITA JABRA  CLOUDY    31  30  96 NE3       30.20S FOG
WICHITA MCCONL CLOUDY    32  31  97 NE3       30.20S FOG
WINFIELD       CLOUDY    33  33 100 CALM      30.21S FOG
$$

KSZ007>012-019>026-033>040-048>060-102>105-181800-
NORTHEAST KANSAS

CITY           SKY/WX    TMP DP  RH WIND       PRES   REMARKS
CONCORDIA      CLOUDY    27  26  96 E3        30.22S
EMPORIA        CLOUDY    29  29 100 NE5       30.21S FOG
LAWRENCE       CLOUDY    31  27  85 E7        30.25S FOG
MANHATTAN      CLOUDY    30  27  88 CALM      30.24S
MARYSVILLE     CLOUDY    30  27  86 CALM      30.23F
OLATHE IND     CLOUDY    31  28  89 E6        30.23S FOG
OLATHE EXE     CLOUDY    32  29  88 E6        30.22S FOG
SALINA         CLOUDY    30  26  85 N3        30.23S
TOPEKA BILLARD CLOUDY    32  28  85 CALM      30.26R FOG
TOPEKA FORBES  CLOUDY    33  28  81 CALM      30.24R HAZE
$$


USA.gov is the U.S. government's official web portal to all federal, state and local government web resources and services.